�������l�o���
Date,Time,MP-1(��Sv/h),MP-2(��Sv/h),MP-3(��Sv/h),MP-4(��Sv/h),MP-5(��Sv/h),MP-6(��Sv/h),MP-7(��Sv/h),MP-8(��Sv/h),����,����(m/s),���J
2020/09/05,00:00,0.677,0.962,0.616,1.185,0.855,0.388,0.682,0.638,�k��,5.0,��
2020/09/05,00:10,0.677,0.963,0.616,1.185,0.856,0.387,0.682,0.639,�k�k��,4.5,��
2020/09/05,00:20,0.679,0.965,0.617,1.184,0.856,0.386,0.683,0.638,�k�k��,2.9,��
2020/09/05,00:30,0.678,0.964,0.616,1.187,0.858,0.389,0.682,0.637,�k�k��,5.0,��
2020/09/05,00:40,0.677,0.965,0.615,1.185,0.855,0.389,0.681,0.637,�k�k��,4.6,��
2020/09/05,00:50,0.678,0.960,0.616,1.186,0.853,0.388,0.682,0.639,�k�k��,5.8,��
2020/09/05,01:00,0.678,0.963,0.616,1.185,0.856,0.388,0.680,0.637,�k�k��,5.4,��
2020/09/05,01:10,0.678,0.964,0.618,1.187,0.854,0.389,0.681,0.638,�k�k��,4.8,��
2020/09/05,01:20,0.676,0.962,0.616,1.188,0.854,0.388,0.681,0.639,�k,4.8,��
2020/09/05,01:30,0.678,0.962,0.620,1.184,0.852,0.386,0.682,0.638,�k�k��,4.4,��
2020/09/05,01:40,0.680,0.961,0.616,1.186,0.856,0.387,0.681,0.638,�k,4.4,��
2020/09/05,01:50,0.679,0.964,0.616,1.187,0.856,0.388,0.681,0.638,�k,4.6,��
2020/09/05,02:00,0.679,0.963,0.616,1.188,0.854,0.388,0.682,0.637,�k,4.3,��
2020/09/05,02:10,0.678,0.964,0.617,1.187,0.854,0.388,0.681,0.639,�k,4.0,��
2020/09/05,02:20,0.678,0.963,0.617,1.185,0.855,0.389,0.682,0.637,�k,4.2,��
2020/09/05,02:30,0.679,0.963,0.617,1.185,0.854,0.389,0.682,0.638,�k,3.9,��
2020/09/05,02:40,0.679,0.963,0.616,1.187,0.855,0.389,0.681,0.638,�k,4.2,��
2020/09/05,02:50,0.678,0.962,0.617,1.187,0.857,0.388,0.678,0.639,�k�k��,4.7,��
2020/09/05,03:00,0.678,0.962,0.619,1.185,0.854,0.389,0.681,0.639,�k�k��,4.4,��
2020/09/05,03:10,0.678,0.961,0.617,1.188,0.855,0.389,0.682,0.639,�k��,4.6,��
2020/09/05,03:20,0.678,0.962,0.616,1.187,0.854,0.387,0.681,0.639,�k��,4.6,��
2020/09/05,03:30,0.680,0.967,0.617,1.189,0.854,0.389,0.683,0.638,�k�k��,5.5,��
2020/09/05,03:40,0.680,0.965,0.618,1.186,0.853,0.389,0.681,0.639,�k�k��,6.2,��
2020/09/05,03:50,0.680,0.963,0.617,1.185,0.856,0.391,0.683,0.638,�k�k��,5.9,��
2020/09/05,04:00,0.679,0.964,0.618,1.187,0.855,0.390,0.681,0.638,�k�k��,5.7,��
2020/09/05,04:10,0.679,0.963,0.618,1.185,0.857,0.388,0.683,0.639,�k�k��,6.8,��
2020/09/05,04:20,0.679,0.963,0.617,1.186,0.854,0.390,0.682,0.637,�k�k��,6.4,��
2020/09/05,04:30,0.679,0.964,0.616,1.187,0.857,0.388,0.682,0.638,�k,6.7,�L
2020/09/05,04:40,0.680,0.963,0.616,1.186,0.856,0.389,0.681,0.637,�k,6.6,�L
2020/09/05,04:50,0.678,0.962,0.617,1.188,0.857,0.389,0.681,0.639,�k,4.7,�L
2020/09/05,05:00,0.677,0.961,0.616,1.186,0.857,0.387,0.681,0.638,�k,4.0,�L
2020/09/05,05:10,0.678,0.961,0.615,1.187,0.855,0.387,0.682,0.638,�k,4.2,�L
2020/09/05,05:20,0.678,0.961,0.616,1.185,0.855,0.388,0.680,0.639,�k,4.8,�L
2020/09/05,05:30,0.676,0.960,0.618,1.188,0.854,0.389,0.682,0.639,�k,5.4,�L
2020/09/05,05:40,0.677,0.960,0.615,1.189,0.854,0.388,0.679,0.638,�k,4.8,��
2020/09/05,05:50,0.676,0.960,0.618,1.185,0.854,0.389,0.681,0.638,�k,5.5,��
2020/09/05,06:00,0.675,0.962,0.617,1.187,0.853,0.388,0.681,0.637,�k�k��,5.9,��
2020/09/05,06:10,0.678,0.961,0.617,1.188,0.856,0.387,0.682,0.638,�k�k��,4.2,��
2020/09/05,06:20,0.678,0.963,0.615,1.188,0.854,0.389,0.681,0.638,�k�k��,4.5,��
2020/09/05,06:30,0.677,0.961,0.617,1.186,0.853,0.387,0.682,0.638,�k�k��,3.6,��
2020/09/05,06:40,0.677,0.962,0.617,1.188,0.855,0.389,0.680,0.640,�k�k��,4.4,��
2020/09/05,06:50,0.676,0.961,0.617,1.188,0.856,0.388,0.681,0.639,�k�k��,3.9,��
2020/09/05,07:00,0.677,0.961,0.619,1.188,0.853,0.388,0.683,0.638,�k�k��,4.8,��
2020/09/05,07:10,0.678,0.961,0.618,1.187,0.855,0.387,0.681,0.639,�k�k��,3.7,�L
2020/09/05,07:20,0.676,0.962,0.617,1.189,0.855,0.387,0.681,0.639,�k�k��,4.4,�L
2020/09/05,07:30,0.676,0.960,0.618,1.186,0.855,0.386,0.682,0.639,�k�k��,5.1,�L
2020/09/05,07:40,0.675,0.961,0.616,1.185,0.856,0.387,0.682,0.638,�k�k��,5.5,�L
2020/09/05,07:50,0.677,0.959,0.616,1.186,0.854,0.387,0.681,0.638,�k,5.1,�L
2020/09/05,08:00,0.674,0.959,0.615,1.188,0.853,0.388,0.680,0.637,�k,3.4,�L
2020/09/05,08:10,0.675,0.958,0.612,1.187,0.853,0.387,0.679,0.638,�k,3.9,�L
2020/09/05,08:20,0.673,0.957,0.613,1.186,0.852,0.387,0.678,0.636,�k,4.8,�L
2020/09/05,08:30,0.671,0.954,0.613,1.187,0.849,0.387,0.679,0.638,�k,4.4,�L
2020/09/05,08:40,0.672,0.941,0.608,1.180,0.848,0.385,0.678,0.638,�k,5.5,�L
2020/09/05,08:50,0.669,0.937,0.606,1.175,0.840,0.387,0.680,0.637,�k�k��,6.0,�L
2020/09/05,09:00,0.641,0.912,0.598,1.151,0.826,0.380,0.664,0.629,�k�k��,5.2,�L
2020/09/05,09:10,0.638,0.883,0.587,1.113,0.785,0.339,0.656,0.624,�k�k��,1.7,�L
2020/09/05,09:20,0.644,0.895,0.590,1.116,0.791,0.324,0.656,0.619,�k�k��,6.0,�L
2020/09/05,09:30,0.645,0.890,0.588,1.118,0.793,0.357,0.659,0.622,�k��,6.2,�L
2020/09/05,09:40,0.647,0.895,0.589,1.119,0.795,0.372,0.661,0.624,�k��,5.6,�L
2020/09/05,09:50,0.653,0.901,0.592,1.127,0.798,0.377,0.660,0.625,�k��,4.1,�L
2020/09/05,10:00,0.655,0.906,0.594,1.129,0.801,0.379,0.661,0.625,�k��,4.0,�L
2020/09/05,10:10,0.655,0.908,0.595,1.133,0.804,0.379,0.661,0.624,�k��,4.5,�L
2020/09/05,10:20,0.655,0.909,0.595,1.136,0.804,0.380,0.661,0.625,���k��,4.5,�L
2020/09/05,10:30,0.655,0.911,0.594,1.138,0.806,0.380,0.662,0.626,�k��,4.7,�L
2020/09/05,10:40,0.656,0.907,0.592,1.134,0.807,0.379,0.662,0.624,�k��,6.1,�L
2020/09/05,10:50,0.659,0.905,0.593,1.133,0.805,0.379,0.664,0.625,���k��,6.3,�L
2020/09/05,11:00,0.657,0.910,0.593,1.138,0.806,0.380,0.664,0.624,���k��,6.9,�L
2020/09/05,11:10,0.657,0.912,0.594,1.140,0.807,0.380,0.665,0.626,���k��,7.5,�L
2020/09/05,11:20,0.658,0.911,0.594,1.139,0.808,0.379,0.664,0.627,���k��,7.6,�L
2020/09/05,11:30,0.656,0.909,0.593,1.142,0.807,0.379,0.664,0.626,���k��,6.7,��
2020/09/05,11:40,0.658,0.914,0.594,1.141,0.811,0.380,0.663,0.626,���k��,6.4,��
2020/09/05,11:50,0.659,0.917,0.596,1.141,0.813,0.379,0.665,0.625,���k��,5.9,��
2020/09/05,12:00,0.659,0.918,0.594,1.142,0.811,0.379,0.666,0.629,���k��,6.0,��
2020/09/05,12:10,0.660,0.919,0.595,1.143,0.812,0.380,0.664,0.627,���k��,4.6,��
2020/09/05,12:20,0.659,0.921,0.595,1.147,0.814,0.378,0.665,0.627,���k��,4.2,��
2020/09/05,12:30,0.661,0.922,0.596,1.142,0.814,0.381,0.666,0.628,���k��,4.4,��
2020/09/05,12:40,0.661,0.922,0.596,1.146,0.813,0.379,0.665,0.628,���k��,3.7,��
2020/09/05,12:50,0.662,0.923,0.598,1.146,0.814,0.379,0.667,0.627,���k��,3.5,��
2020/09/05,13:00,0.662,0.923,0.597,1.145,0.815,0.379,0.669,0.627,���k��,3.6,��
2020/09/05,13:10,0.661,0.920,0.597,1.143,0.817,0.380,0.668,0.627,���k��,3.4,��
2020/09/05,13:20,0.662,0.923,0.597,1.148,0.817,0.379,0.668,0.628,���k��,3.4,��
2020/09/05,13:30,0.663,0.925,0.599,1.148,0.819,0.379,0.669,0.628,���k��,3.5,��
2020/09/05,13:40,0.663,0.923,0.598,1.148,0.817,0.381,0.668,0.626,���k��,3.6,��
2020/09/05,13:50,0.664,0.925,0.599,1.149,0.819,0.380,0.668,0.628,���k��,4.0,��
2020/09/05,14:00,0.662,0.925,0.598,1.149,0.819,0.380,0.666,0.627,���k��,4.5,��
2020/09/05,14:10,0.662,0.927,0.598,1.149,0.817,0.380,0.667,0.627,���k��,4.1,��
2020/09/05,14:20,0.662,0.924,0.599,1.146,0.820,0.380,0.669,0.628,�k��,4.3,��
2020/09/05,14:30,0.664,0.923,0.600,1.147,0.821,0.379,0.667,0.628,���k��,4.3,��
2020/09/05,14:40,0.665,0.927,0.599,1.150,0.822,0.380,0.669,0.630,���k��,5.1,��
2020/09/05,14:50,0.661,0.927,0.600,1.152,0.822,0.380,0.668,0.628,���k��,4.7,��
2020/09/05,15:00,0.663,0.925,0.599,1.150,0.822,0.380,0.670,0.628,���k��,4.7,��
2020/09/05,15:10,0.662,0.928,0.599,1.153,0.824,0.381,0.669,0.629,���k��,4.6,��
2020/09/05,15:20,0.662,0.930,0.602,1.152,0.824,0.381,0.669,0.629,���k��,5.0,��
2020/09/05,15:30,0.662,0.930,0.600,1.155,0.824,0.381,0.668,0.628,�k��,5.0,��
2020/09/05,15:40,0.663,0.930,0.602,1.153,0.826,0.382,0.670,0.628,�k��,5.1,��
2020/09/05,15:50,0.663,0.930,0.603,1.152,0.825,0.381,0.672,0.631,�k��,5.1,��
2020/09/05,16:00,0.663,0.932,0.605,1.152,0.826,0.381,0.671,0.630,�k��,4.8,��
2020/09/05,16:10,0.662,0.933,0.603,1.151,0.825,0.382,0.670,0.630,�k�k��,4.9,��
2020/09/05,16:20,0.662,0.932,0.602,1.155,0.825,0.382,0.669,0.629,�k��,3.9,��
2020/09/05,16:30,0.664,0.933,0.603,1.153,0.825,0.382,0.671,0.631,�k��,3.5,��
2020/09/05,16:40,0.662,0.934,0.604,1.154,0.826,0.382,0.671,0.632,�k��,3.5,��
2020/09/05,16:50,0.664,0.932,0.604,1.154,0.825,0.382,0.671,0.631,�k��,2.6,��
2020/09/05,17:00,0.663,0.934,0.602,1.150,0.826,0.382,0.671,0.630,�k�k��,3.1,��
2020/09/05,17:10,0.665,0.933,0.602,1.153,0.825,0.383,0.671,0.631,�k�k��,2.9,��
2020/09/05,17:20,0.663,0.933,0.602,1.154,0.826,0.383,0.671,0.631,�k,2.6,��
2020/09/05,17:30,0.664,0.936,0.602,1.154,0.826,0.383,0.670,0.629,�k�k��,2.3,��
2020/09/05,17:40,0.664,0.931,0.602,1.155,0.826,0.382,0.670,0.631,�k,3.0,�L
2020/09/05,17:50,0.664,0.932,0.602,1.153,0.825,0.381,0.670,0.631,�k,3.0,��
2020/09/05,18:00,0.663,0.934,0.604,1.153,0.824,0.383,0.672,0.631,�k�k��,2.0,�L
2020/09/05,18:10,0.664,0.934,0.603,1.153,0.826,0.382,0.672,0.631,�k�k��,2.0,�L
2020/09/05,18:20,0.664,0.936,0.601,1.154,0.827,0.383,0.671,0.629,�k,2.3,�L
2020/09/05,18:30,0.665,0.933,0.601,1.153,0.825,0.381,0.669,0.630,�k�k��,2.6,�L
2020/09/05,18:40,0.663,0.932,0.601,1.151,0.821,0.381,0.670,0.629,�k�k��,3.2,�L
2020/09/05,18:50,0.661,0.932,0.602,1.151,0.820,0.381,0.670,0.629,�k�k��,3.5,�L
2020/09/05,19:00,0.663,0.933,0.601,1.151,0.821,0.380,0.669,0.631,�k�k��,4.4,�L
2020/09/05,19:10,0.664,0.931,0.602,1.151,0.820,0.381,0.668,0.629,�k�k��,3.4,��
2020/09/05,19:20,0.661,0.931,0.600,1.154,0.820,0.381,0.669,0.629,�k�k��,3.2,��
2020/09/05,19:30,0.662,0.930,0.601,1.153,0.821,0.381,0.670,0.630,�k�k��,3.8,��
2020/09/05,19:40,0.660,0.931,0.601,1.154,0.820,0.382,0.669,0.630,�k�k��,4.7,��
2020/09/05,19:50,0.664,0.931,0.600,1.155,0.820,0.381,0.671,0.628,�k�k��,5.6,��
2020/09/05,20:00,0.662,0.932,0.603,1.153,0.819,0.381,0.670,0.629,�k�k��,5.7,��
2020/09/05,20:10,0.663,0.930,0.602,1.153,0.820,0.382,0.668,0.631,�k�k��,5.9,��
2020/09/05,20:20,0.661,0.932,0.603,1.152,0.819,0.381,0.669,0.630,�k�k��,6.1,�L
2020/09/05,20:30,0.661,0.932,0.602,1.155,0.820,0.381,0.668,0.631,�k�k��,4.1,�L
2020/09/05,20:40,0.660,0.933,0.601,1.152,0.821,0.381,0.668,0.629,�k�k��,3.7,��
2020/09/05,20:50,0.661,0.933,0.601,1.155,0.822,0.381,0.669,0.629,�k,2.9,��
2020/09/05,21:00,0.662,0.930,0.602,1.152,0.820,0.381,0.669,0.629,�k,2.6,�L
2020/09/05,21:10,0.660,0.931,0.600,1.155,0.821,0.381,0.670,0.632,�k,2.6,�L
2020/09/05,21:20,0.658,0.927,0.597,1.152,0.817,0.381,0.667,0.628,�k�k��,1.5,�L
2020/09/05,21:30,0.658,0.928,0.599,1.151,0.816,0.380,0.668,0.629,�k,1.5,��
2020/09/05,21:40,0.660,0.928,0.600,1.152,0.818,0.381,0.665,0.630,�k�k��,1.5,��
2020/09/05,21:50,0.660,0.927,0.598,1.151,0.815,0.382,0.668,0.630,�k�k��,1.4,��
2020/09/05,22:00,0.659,0.929,0.598,1.152,0.817,0.380,0.666,0.628,�k��,2.2,��
2020/09/05,22:10,0.660,0.929,0.598,1.154,0.818,0.380,0.667,0.630,�k��,3.0,��
2020/09/05,22:20,0.661,0.930,0.600,1.152,0.818,0.380,0.668,0.629,�k��,3.9,��
2020/09/05,22:30,0.661,0.928,0.600,1.153,0.817,0.381,0.667,0.630,�k,3.5,��
2020/09/05,22:40,0.660,0.929,0.600,1.152,0.816,0.382,0.667,0.630,�k�k��,3.2,��
2020/09/05,22:50,0.661,0.930,0.599,1.154,0.819,0.380,0.668,0.629,�k�k��,3.7,��
2020/09/05,23:00,0.661,0.930,0.599,1.152,0.820,0.382,0.669,0.630,�k,2.6,��
2020/09/05,23:10,0.660,0.930,0.602,1.153,0.820,0.382,0.668,0.629,�k,1.7,��
2020/09/05,23:20,0.660,0.931,0.600,1.154,0.819,0.380,0.667,0.631,�k,2.2,��
2020/09/05,23:30,0.661,0.931,0.600,1.153,0.820,0.381,0.667,0.630,�k�k��,1.9,��
2020/09/05,23:40,0.662,0.930,0.601,1.155,0.819,0.381,0.668,0.630,�k�k��,1.5,��
2020/09/05,23:50,0.661,0.930,0.602,1.154,0.819,0.380,0.667,0.629,�k��,2.5,��
